Location: Brissac
(47.3500°N, 0.4500°W)
Time: 15:36:07
(UTC+02:00)

ISS - Pass Details

Date: 21 May 2021
Orbit: 419 x 422 km, 51.6° (Epoch: 25 June)

Event Time Altitude Azimuth Distance (km) Brightness Sun altitude
Rises 23:34:43 0° 282° (WNW) 2,371 0.8 -15.0°
Reaches altitude 10° 23:36:55 10° 291° (WNW) 1,507 -0.1 -15.2°
Maximum altitude 23:40:06 38° 1° (N) 665 -2.3 -15.5°
Drops below altitude 10° 23:43:18 10° 72° (ENE) 1,508 -1.1 -15.8°
Enters shadow 23:44:02 - 75° (ENE) 1,787 -0.7 -15.8°
